Flag for U.S.A. Weather past 2 weeks in Kailua-Kona, Hawaii, U.S.A.

Now
77 °F

Passing clouds.


Feels Like: 79 °F
Forecast: 74 / 85 °F
Wind: 5 mph from Northeast

Location: Keahole Airport

Current Time: Aug 30, 2015 at 6:47:32 AM

Latest Report: Aug 30, 2015 at 5:53 AM


Visibility: 10 mi

Pressure: 29.83 "Hg

Humidity: 82%

Dew point: 71 °F

Location of Kailua-KonaLocation

Historic Weather in Kailua-Kona — Graph

°F

Kailua-Kona temperature yesterday

Maximum temperature yesterday: 90 °F (at 11:53 AM)
Minimum temperature yesterday: 78 °F (at 3:53 AM)
Average temperature yesterday: 84 °F

Past Weeks' High & Low Weather Summary

 TemperatureHumidityPressure
High91 °F (Aug 15, 1:53 PM)100% (Aug 20, 4:11 AM)29.96 "Hg (Aug 20, 4:11 AM)
Low75 °F (Aug 25, 4:53 AM)48% (Aug 29, 7:53 AM)29.78 "Hg (Aug 18, 4:53 PM)
Average83 °F75%29.87 "Hg
* Reported Aug 15 4:53 AM — Aug 30 4:53 AM, Kailua-Kona, Weather by CustomWeather, © 2015

Note: Actual official high and low records may vary slightly from our data, if they occured in-between our weather recording intervals... More about our weather records

Advertising

Kailua-Kona weather history for previous 24 hours

 ConditionsComfort  
Time TempWeatherWind HumidityBarometerVisibility
4:53 AM
Sun, Aug 30
78 °FClear.3 mph76%29.83 "Hg10 mi
3:53 AM79 °FClear.6 mph77%29.82 "Hg10 mi
2:53 AM80 °FClear.6 mph74%29.83 "Hg10 mi
1:53 AM80 °FClear.5 mph69%29.85 "Hg10 mi
12:53 AM82 °FClear.6 mph70%29.86 "Hg10 mi
11:53 PM
Sat, Aug 29
83 °FOvercast.3 mph74%29.87 "Hg10 mi
10:53 PM83 °FOvercast.3 mph74%29.88 "Hg10 mi
9:53 PM82 °FPassing clouds.7 mph79%29.88 "Hg10 mi
8:53 PM84 °FPassing clouds.5 mph63%29.86 "Hg10 mi
7:53 PM84 °FOvercast.6 mph74%29.84 "Hg10 mi
6:53 PM84 °FPartly cloudy.6 mph77%29.83 "Hg10 mi
5:53 PM85 °FBroken clouds.8 mph72%29.82 "Hg10 mi
4:53 PM86 °FBroken clouds.8 mph70%29.81 "Hg10 mi
3:53 PM87 °FPartly sunny.10 mph67%29.81 "Hg10 mi
2:53 PM88 °FScattered clouds.14 mph67%29.83 "Hg10 mi
1:53 PM90 °FScattered clouds.13 mph61%29.83 "Hg10 mi
12:53 PM89 °FScattered clouds.13 mph61%29.85 "Hg10 mi
11:53 AM90 °FPassing clouds.12 mph59%29.86 "Hg10 mi
10:53 AM88 °FScattered clouds.12 mph63%29.87 "Hg10 mi
9:53 AM87 °FPassing clouds.9 mph63%29.86 "Hg10 mi
8:53 AM86 °FPassing clouds.10 mph59%29.86 "Hg10 mi
7:53 AM87 °FSunny.14 mph48%29.86 "Hg10 mi
6:53 AM81 °FSunny.10 mph60%29.84 "Hg10 mi
Weather by CustomWeather, © 2015

See weather overviewHow to use our weather pages